K7JKM Weather Reports


time (UTC)temp
F
wind
direction
speed
knots
gust
knots
rain 1hr
in
rain 24hr
in
rain mn
in
humidity
%
barometer
mb
20260905211513 69 324 0.0 1.7 0.00 0.07 0.01 55 1016.8
20260905210015 69 326 0.0 2.6 0.00 0.07 0.01 53 1017.0
20260905204518 69 14 0.0 0.0 0.00 0.07 0.01 54 1017.1
20260905203018 69 319 0.0 0.0 0.00 0.07 0.01 54 1017.1
20260905201516 67 48 0.0 0.0 0.00 0.07 0.01 58 1017.1
20260905200021 66 284 0.0 2.6 0.00 0.07 0.01 60 1017.2
20260905194517 66 278 0.0 0.9 0.00 0.07 0.01 59 1017.3
20260905193016 66 167 0.0 0.9 0.00 0.07 0.01 60 1017.4
20260905191518 65 152 0.0 1.7 0.00 0.07 0.01 63 1017.6
20260905190019 64 115 0.0 0.0 0.00 0.08 0.01 64 1017.6
20260905184521 63 115 0.0 0.0 0.00 0.08 0.01 66 1017.6
20260905183024 62 294 0.0 0.9 0.00 0.08 0.01 67 1017.7
20260905181505 62 131 0.0 0.0 0.00 0.08 0.01 66 1017.7
20260905180005 62 132 0.0 0.0 0.00 0.08 0.01 67 1017.6
20260905174508 61 131 0.0 0.9 0.00 0.08 0.01 68 1017.7
20260905173023 60 119 0.0 0.0 0.00 0.08 0.01 69 1017.7
20260905171524 59 114 0.0 0.9 0.00 0.08 0.01 71 1017.8
20260905170014 59 293 0.0 0.9 0.00 0.08 0.01 71 1017.8
20260905164510 59 148 0.0 0.0 0.00 0.08 0.01 72 1017.7
20260905163010 58 148 0.0 0.0 0.00 0.08 0.01 72 1017.7
20260905161506 58 148 0.0 0.0 0.00 0.08 0.01 73 1017.8
20260905160012 57 147 0.0 0.0 0.00 0.08 0.01 74 1017.8
20260905154526 57 158 0.0 0.0 0.00 0.08 0.01 78 1017.8
20260905153031 56 174 0.0 0.0 0.00 0.08 0.01 79 1017.7
20260905151520 56 174 0.0 0.0 0.00 0.08 0.01 80 1017.6
20260905150018 56 174 0.0 0.0 0.00 0.09 0.01 80 1017.7
20260905144510 56 174 0.0 0.0 0.00 0.09 0.01 80 1017.6
20260905143012 55 174 0.0 0.0 0.01 0.09 0.01 80 1017.6
20260905141508 55 174 0.0 0.0 0.01 0.09 0.01 80 1017.5
20260905140030 55 174 0.0 0.0 0.01 0.09 0.01 80 1017.5
20260905134528 54 174 0.0 0.0 0.01 0.09 0.01 80 1017.5
20260905133024 55 174 0.0 0.0 0.00 0.08 0.00 79 1017.4
20260905131540 55 174 0.0 0.0 0.00 0.08 0.00 79 1017.4
20260905130019 55 174 0.0 0.0 0.00 0.08 0.00 79 1017.2
20260905124517 55 174 0.0 0.0 0.00 0.08 0.00 79 1017.2
20260905123012 55 174 0.0 0.0 0.00 0.08 0.00 79 1017.1
20260905121531 55 174 0.0 0.0 0.00 0.08 0.00 79 1017.0
20260905120030 55 174 0.0 0.0 0.00 0.08 0.00 79 1016.9
20260905114539 55 174 0.0 0.0 0.00 0.08 0.00 79 1017.2
20260905113035 55 174 0.0 0.0 0.00 0.08 0.00 79 1017.0
20260905111526 55 174 0.0 0.0 0.00 0.08 0.00 79 1016.8
20260905110019 55 174 0.0 0.0 0.00 0.08 0.00 79 1017.0
20260905104521 55 174 0.0 0.0 0.00 0.08 0.00 79 1017.0
20260905103034 55 174 0.0 0.0 0.00 0.09 0.00 79 1017.0
20260905101541 55 174 0.0 0.0 0.00 0.10 0.00 78 1017.0
20260905100031 55 174 0.0 0.0 0.00 0.11 0.00 78 1016.8
20260905094530 55 174 0.0 0.0 0.00 0.11 0.00 77 1016.9
20260905093033 55 174 0.0 0.0 0.00 0.11 0.00 76 1016.9
20260905091526 55 174 0.0 0.0 0.00 0.12 0.00 76 1016.8
20260905090020 55 174 0.0 0.0 0.00 0.13 0.00 76 1016.8
20260905084536 55 174 0.0 0.0 0.00 0.15 0.00 75 1016.8
20260905083003 55 174 0.0 0.0 0.00 0.18 0.00 75 1016.7
20260905081502 55 174 0.0 0.0 0.00 0.19 0.00 75 1016.6
20260905080008 56 174 0.0 0.0 0.00 0.19 0.00 75 1016.6
20260905074506 56 176 0.0 0.0 0.00 0.19 0.00 75 1016.4
20260905073004 56 176 0.0 0.0 0.00 0.19 0.00 75 1016.4
20260905071508 56 176 0.0 0.0 0.00 0.19 0.00 75 1016.4
20260905070003 56 151 0.0 0.0 0.00 0.19 0.00 75 1016.4
20260905064503 56 151 0.0 0.0 0.00 0.20 0.19 75 1016.4
20260905063004 56 151 0.0 0.0 0.00 0.20 0.19 75 1016.3
20260905061512 56 151 0.0 0.0 0.00 0.20 0.19 74 1016.3
20260905060018 56 151 0.0 0.0 0.00 0.20 0.19 75 1016.3
20260905054508 55 151 0.0 0.0 0.00 0.20 0.19 75 1016.2
20260905053015 55 152 0.0 0.0 0.00 0.20 0.19 75 1016.1
20260905051504 55 152 0.0 0.0 0.00 0.20 0.19 75 1016.0
20260905050003 55 151 0.0 0.0 0.00 0.20 0.19 75 1016.1
20260905044503 55 152 0.0 0.0 0.00 0.20 0.19 74 1016.0
20260905043018 55 152 0.0 0.0 0.00 0.20 0.19 74 1015.9
20260905041514 56 152 0.0 0.0 0.00 0.20 0.19 74 1015.8
20260905040018 56 152 0.0 0.0 0.00 0.20 0.19 73 1015.6
20260905034506 57 151 0.0 0.0 0.00 0.20 0.19 72 1015.4
20260905033004 58 152 0.0 0.0 0.00 0.21 0.19 72 1015.3
20260905031505 58 160 0.0 0.0 0.00 0.22 0.19 72 1015.2
20260905030004 59 136 0.0 0.0 0.00 0.23 0.19 71 1015.1
20260905024531 59 134 0.0 1.7 0.00 0.24 0.19 70 1015.0
20260905023020 60 120 0.0 7.0 0.00 0.24 0.19 69 1015.0
20260905021515 60 129 0.0 4.3 0.00 0.25 0.19 67 1015.1
20260905020020 60 291 0.0 1.7 0.00 0.25 0.19 69 1015.1
20260905014507 61 97 0.0 3.5 0.00 0.26 0.19 68 1015.0
20260905013008 62 92 0.0 3.5 0.00 0.26 0.19 68 1014.7
20260905011532 63 62 0.0 0.9 0.00 0.27 0.19 69 1014.7
20260905010026 64 114 0.0 0.9 0.00 0.27 0.19 68 1014.7
20260905004523 64 63 0.0 0.9 0.00 0.27 0.19 67 1014.5
20260905003017 63 66 0.0 0.9 0.00 0.27 0.19 70 1014.3
20260905001514 64 11 0.0 0.0 0.00 0.27 0.19 69 1014.2
20260905000013 64 305 0.0 0.0 0.00 0.27 0.19 67 1014.2
20260904234510 64 92 0.0 1.7 0.00 0.27 0.19 67 1014.2
20260904233036 66 139 0.0 0.9 0.00 0.27 0.19 66 1014.0
20260904231534 64 127 0.0 0.9 0.00 0.27 0.19 69 1014.0
20260904230028 62 128 0.0 2.6 0.01 0.29 0.19 67 1014.0
20260904224528 61 121 0.0 0.0 0.01 0.31 0.19 72 1013.9
20260904223025 60 121 0.0 0.9 0.03 0.31 0.19 72 1013.9
20260904221518 60 122 0.0 0.0 0.06 0.31 0.19 74 1014.1
20260904220023 59 122 0.0 0.9 0.05 0.30 0.18 72 1014.0
20260904214533 59 213 0.0 0.0 0.05 0.32 0.18 73 1014.0
20260904213022 60 217 0.0 1.7 0.03 0.35 0.16 72 1013.9